GW4746 Weather Reports


Display with metric or nautical units.
time (UTC)temp
F
wind
direction
speed
MPH
gust
MPH
rain 1hr
in
rain 24hr
in
rain mn
in
humidity
%
barometer
mb
20260905171527 94 147 1.0 6.0 0.00 0.00 0.00 45 1015.7
20260905170026 93 103 2.0 5.0 0.00 0.00 0.00 48 1015.7
20260905164528 93 47 1.0 5.0 0.00 0.00 0.00 48 1015.7
20260905163008 92 142 1.0 5.0 0.00 0.00 0.00 50 1015.9
20260905161512 91 162 1.0 3.0 0.00 0.00 0.00 51 1016.1
20260905160020 90 166 1.0 4.0 0.00 0.00 0.00 53 1016.1
20260905154504 89 266 1.0 3.0 0.00 0.00 0.00 54 1016.1
20260905153029 88 207 1.0 4.0 0.00 0.00 0.00 56 1016.0
20260905151509 87 248 1.0 5.0 0.00 0.00 0.00 56 1016.0
20260905150021 87 220 2.0 5.0 0.00 0.00 0.00 56 1015.9
20260905144503 86 166 2.0 3.0 0.00 0.00 0.00 57 1015.8
20260905143004 85 153 1.0 3.0 0.00 0.00 0.00 58 1016.0
20260905141508 84 144 1.0 3.0 0.00 0.00 0.00 60 1016.2
20260905140008 82 156 1.0 3.0 0.00 0.00 0.00 63 1016.0
20260905134522 81 160 1.0 2.0 0.00 0.00 0.00 65 1015.9
20260905133021 79 179 0.0 2.0 0.00 0.00 0.00 69 1015.8
20260905131511 77 101 0.0 2.0 0.00 0.00 0.00 72 1015.7
20260905130030 76 191 0.0 0.0 0.00 0.00 0.00 73 1015.4
20260905124512 76 167 0.0 0.0 0.00 0.00 0.00 74 1015.5
20260905123022 75 148 0.0 1.0 0.00 0.00 0.00 74 1015.2
20260905121523 75 165 0.0 2.0 0.00 0.00 0.00 74 1015.0
20260905120019 76 161 0.0 1.0 0.00 0.00 0.00 73 1015.0
20260905114513 76 159 0.0 2.0 0.00 0.00 0.00 73 1015.0
20260905113013 76 53 0.0 1.0 0.00 0.00 0.00 72 1015.0
20260905111522 76 161 0.0 2.0 0.00 0.00 0.00 72 1015.0
20260905110033 76 176 0.0 2.0 0.00 0.00 0.00 71 1014.8
20260905104515 76 154 0.0 2.0 0.00 0.00 0.00 71 1014.9
20260905103013 77 161 0.0 2.0 0.00 0.00 0.00 70 1014.8
20260905101514 77 158 0.0 1.0 0.00 0.00 0.00 69 1014.9
20260905100031 78 155 0.0 3.0 0.00 0.00 0.00 68 1015.0
20260905094552 78 167 0.0 3.0 0.00 0.00 0.00 68 1014.7
20260905093008 78 154 1.0 2.0 0.00 0.00 0.00 67 1014.9
20260905091512 78 171 0.0 2.0 0.00 0.00 0.00 67 1015.0
20260905090034 79 186 1.0 3.0 0.00 0.00 0.00 66 1014.7
20260905084524 79 148 0.0 4.0 0.00 0.00 0.00 64 1014.9
20260905083031 79 154 1.0 3.0 0.00 0.00 0.00 63 1014.8
20260905081535 80 194 1.0 5.0 0.00 0.00 0.00 62 1014.7
20260905080031 80 148 2.0 5.0 0.00 0.00 0.00 61 1014.5
20260905074518 80 231 1.0 4.0 0.00 0.00 0.00 60 1014.6
20260905073033 80 144 1.0 2.0 0.00 0.00 0.00 60 1014.6
20260905071534 81 157 1.0 3.0 0.00 0.00 0.00 60 1014.7
20260905070010 81 152 0.0 4.0 0.00 0.00 0.00 60 1014.8
20260905064514 81 173 0.0 3.0 0.00 0.00 0.00 60 1014.7
20260905063031 82 164 0.0 2.0 0.00 0.00 0.00 60 1014.8
20260905061540 82 148 0.0 4.0 0.00 0.00 0.00 59 1014.7
20260905060051 82 165 0.0 3.0 0.00 0.00 0.00 60 1014.6
20260905054545 82 76 0.0 3.0 0.00 0.00 0.00 57 1014.7
20260905053017 83 60 0.0 3.0 0.00 0.00 0.00 55 1014.6
20260905051534 83 135 0.0 2.0 0.00 0.00 0.00 55 1014.4
20260905050029 83 154 0.0 2.0 0.00 0.00 0.00 54 1014.5
20260905044531 83 169 0.0 5.0 0.00 0.00 0.00 54 1014.5
20260905043001 84 125 0.0 4.0 0.00 0.00 0.00 53 1014.6
20260905041520 84 165 1.0 1.0 0.00 0.00 0.00 53 1014.6
20260905040007 85 164 0.0 3.0 0.00 0.00 0.00 52 1014.4
20260905034509 85 164 1.0 4.0 0.00 0.00 0.00 52 1014.3
20260905033008 85 186 0.0 3.0 0.00 0.00 0.00 51 1014.4
20260905031500 86 110 0.0 3.0 0.00 0.00 0.00 51 1014.3
20260905030004 86 171 0.0 3.0 0.00 0.00 0.00 50 1014.1
20260905024505 87 154 1.0 3.0 0.00 0.00 0.00 49 1014.0
20260905023017 87 98 2.0 3.0 0.00 0.00 0.00 49 1013.7
20260905021510 87 130 1.0 4.0 0.00 0.00 0.00 49 1013.5
20260905020004 88 166 0.0 2.0 0.00 0.00 0.00 48 1013.5
20260905014505 88 72 1.0 6.0 0.00 0.00 0.00 48 1013.3
20260905013035 89 160 1.0 3.0 0.00 0.00 0.00 47 1013.2
20260905011508 89 136 2.0 5.0 0.00 0.00 0.00 46 1013.0
20260905010012 90 163 2.0 8.0 0.00 0.00 0.00 46 1012.8
20260905004502 91 154 2.0 7.0 0.00 0.00 0.00 46 1012.8
20260905003009 91 147 2.0 5.0 0.00 0.00 0.00 45 1012.9
20260905001534 92 163 3.0 6.0 0.00 0.00 0.00 45 1013.0
20260905000011 93 196 2.0 8.0 0.00 0.00 0.00 45 1012.7
20260904234521 94 135 4.0 8.0 0.00 0.00 0.00 43 1012.5
20260904233023 95 89 4.0 10.0 0.00 0.00 0.00 42 1012.3
20260904231506 96 138 4.0 10.0 0.00 0.00 0.00 41 1012.0
20260904230004 97 115 3.0 8.0 0.00 0.00 0.00 38 1011.6
20260904224511 97 98 3.0 6.0 0.00 0.00 0.00 39 1011.3
20260904223016 98 187 1.0 8.0 0.00 0.00 0.00 40 1011.6
20260904221524 98 91 2.0 8.0 0.00 0.00 0.00 40 1011.9
20260904220004 98 145 2.0 5.0 0.00 0.00 0.00 38 1011.8
20260904214533 98 117 4.0 8.0 0.00 0.00 0.00 40 1011.9
20260904213011 98 105 4.0 13.0 0.00 0.00 0.00 41 1011.8
20260904211517 100 68 4.0 11.0 0.00 0.00 0.00 39 1011.7
20260904210023 101 146 2.0 5.0 0.00 0.00 0.00 37 1011.9
20260904204533 100 114 0.0 5.0 0.00 0.00 0.00 38 1012.4
20260904203010 100 316 1.0 5.0 0.00 0.00 0.00 39 1012.8
20260904201528 99 314 2.0 4.0 0.00 0.00 0.00 39 1013.1
20260904200037 99 98 2.0 5.0 0.00 0.00 0.00 39 1013.3
20260904194524 100 163 2.0 5.0 0.00 0.00 0.00 40 1013.5
20260904193039 98 151 2.0 6.0 0.00 0.00 0.00 42 1013.5
20260904191536 99 179 3.0 7.0 0.00 0.00 0.00 42 1013.7
20260904190032 98 185 2.0 8.0 0.00 0.00 0.00 43 1013.9
20260904184535 98 168 2.0 7.0 0.00 0.00 0.00 42 1013.9
20260904183035 98 219 2.0 5.0 0.00 0.00 0.00 42 1014.1
20260904181528 98 160 1.0 5.0 0.00 0.00 0.00 42 1014.2
20260904180036 97 161 2.0 5.0 0.00 0.00 0.00 44 1014.5
20260904174531 96 242 1.0 7.0 0.00 0.00 0.00 46 1014.7
20260904173018 95 307 1.0 6.0 0.00 0.00 0.00 48 1014.9